Location: Winnipeg
(49.8830°N, 97.1670°W)
Time: 01:13:24
(UTC-06:00)

X-37B - Pass Details

Date: 17 December 2022
Orbit: 277 x 277 km, 45.0° (Epoch: 01 November)

Event Time Altitude Azimuth Distance (km) Brightness Sun altitude
Rises 17:33:00 0° 263° (W) 1,916 5.8 -9.8°
Reaches altitude 10° 17:35:14 10° 242° (WSW) 1,101 4.5 -10.1°
Maximum altitude 17:37:02 18° 195° (SSW) 774 2.6 -10.4°
Drops below altitude 10° 17:38:50 10° 148° (SSE) 1,099 2.8 -10.7°
Enters shadow 17:40:21 - 132° (SE) 1,633 3.5 -10.9°
